| time (UTC) | temp F | wind direction | speed MPH | gust MPH | rain 1hr in | rain 24hr in | rain mn in | humidity % | barometer mb |
| 20260503021356 | 80 | 98 | 10.0 | 14.0 | 0.00 | 0.00 | 0.00 | 22 | 1020.7 |
| 20260503020342 | 80 | 119 | 9.0 | 17.0 | 0.00 | 0.00 | 0.00 | 22 | 1020.7 |
| 20260503015319 | 81 | 134 | 11.0 | 15.0 | 0.00 | 0.00 | 0.00 | 22 | 1020.8 |
| 20260503014343 | 81 | 121 | 8.0 | 12.0 | 0.00 | 0.00 | 0.00 | 22 | 1020.9 |
| 20260503013331 | 81 | 126 | 10.0 | 13.0 | 0.00 | 0.00 | 0.00 | 22 | 1020.7 |
| 20260503012316 | 82 | 172 | 4.0 | 9.0 | 0.00 | 0.00 | 0.00 | 20 | 1020.8 |
| 20260503011326 | 82 | 171 | 2.0 | 4.0 | 0.00 | 0.00 | 0.00 | 20 | 1020.8 |
| 20260503010336 | 82 | 118 | 2.0 | 6.0 | 0.00 | 0.00 | 0.00 | 20 | 1021.0 |
| 20260503005325 | 82 | 130 | 6.0 | 9.0 | 0.00 | 0.00 | 0.00 | 19 | 1020.8 |
| 20260503004353 | 83 | 140 | 7.0 | 10.0 | 0.00 | 0.00 | 0.00 | 20 | 1020.7 |
| 20260503003324 | 83 | 196 | 4.0 | 7.0 | 0.00 | 0.00 | 0.00 | 19 | 1020.7 |
| 20260503002332 | 83 | 198 | 7.0 | 10.0 | 0.00 | 0.00 | 0.00 | 19 | 1020.6 |
| 20260503001318 | 84 | 190 | 5.0 | 9.0 | 0.00 | 0.00 | 0.00 | 19 | 1020.7 |
| 20260503000355 | 84 | 229 | 4.0 | 9.0 | 0.00 | 0.00 | 0.00 | 19 | 1020.6 |
| 20260502235322 | 83 | 313 | 2.0 | 12.0 | 0.00 | 0.00 | 0.00 | 19 | 1020.8 |
| 20260502234327 | 83 | 140 | 6.0 | 11.0 | 0.00 | 0.00 | 0.00 | 20 | 1020.7 |
| 20260502233342 | 83 | 134 | 0.0 | 9.0 | 0.00 | 0.00 | 0.00 | 19 | 1020.8 |
| 20260502232331 | 83 | 153 | 4.0 | 9.0 | 0.00 | 0.00 | 0.00 | 19 | 1020.9 |
| 20260502231335 | 83 | 232 | 6.0 | 10.0 | 0.00 | 0.00 | 0.00 | 19 | 1021.1 |
| 20260502230322 | 83 | 191 | 7.0 | 19.0 | 0.00 | 0.00 | 0.00 | 19 | 1021.0 |
| 20260502225326 | 84 | 191 | 6.0 | 15.0 | 0.00 | 0.00 | 0.00 | 18 | 1021.1 |
| 20260502224331 | 85 | 219 | 5.0 | 15.0 | 0.00 | 0.00 | 0.00 | 18 | 1021.1 |
| 20260502223322 | 84 | 277 | 4.0 | 16.0 | 0.00 | 0.00 | 0.00 | 18 | 1021.1 |
| 20260502222332 | 85 | 231 | 9.0 | 16.0 | 0.00 | 0.00 | 0.00 | 18 | 1021.1 |
| 20260502221320 | 85 | 203 | 6.0 | 11.0 | 0.00 | 0.00 | 0.00 | 17 | 1021.4 |
| 20260502220329 | 86 | 105 | 8.0 | 16.0 | 0.00 | 0.00 | 0.00 | 15 | 1021.5 |
| 20260502215333 | 86 | 156 | 5.0 | 11.0 | 0.00 | 0.00 | 0.00 | 15 | 1021.8 |
| 20260502214338 | 86 | 74 | 3.0 | 10.0 | 0.00 | 0.00 | 0.00 | 15 | 1021.9 |
| 20260502213325 | 85 | 282 | 7.0 | 13.0 | 0.00 | 0.00 | 0.00 | 15 | 1022.0 |
| 20260502212357 | 84 | 30 | 2.0 | 12.0 | 0.00 | 0.00 | 0.00 | 16 | 1022.0 |
| 20260502211320 | 84 | 161 | 11.0 | 20.0 | 0.00 | 0.00 | 0.00 | 16 | 1022.2 |
| 20260502210328 | 84 | 186 | 8.0 | 11.0 | 0.00 | 0.00 | 0.00 | 16 | 1022.3 |
| 20260502205336 | 84 | 167 | 5.0 | 9.0 | 0.00 | 0.00 | 0.00 | 16 | 1022.4 |
| 20260502204326 | 84 | 125 | 4.0 | 15.0 | 0.00 | 0.00 | 0.00 | 15 | 1022.7 |
| 20260502203318 | 84 | 220 | 5.0 | 17.0 | 0.00 | 0.00 | 0.00 | 15 | 1022.8 |
| 20260502202326 | 83 | 240 | 7.0 | 15.0 | 0.00 | 0.00 | 0.00 | 15 | 1022.8 |
| 20260502201317 | 83 | 252 | 9.0 | 14.0 | 0.00 | 0.00 | 0.00 | 15 | 1023.0 |
| 20260502200327 | 83 | 196 | 8.0 | 15.0 | 0.00 | 0.00 | 0.00 | 16 | 1023.1 |
| 20260502195335 | 84 | 141 | 10.0 | 23.0 | 0.00 | 0.00 | 0.00 | 16 | 1023.1 |
| 20260502194324 | 83 | 227 | 5.0 | 15.0 | 0.00 | 0.00 | 0.00 | 16 | 1023.2 |
| 20260502193317 | 83 | 169 | 6.0 | 22.0 | 0.00 | 0.00 | 0.00 | 17 | 1023.3 |
| 20260502192326 | 82 | 142 | 9.0 | 20.0 | 0.00 | 0.00 | 0.00 | 21 | 1023.3 |
| 20260502191317 | 83 | 188 | 10.0 | 18.0 | 0.00 | 0.00 | 0.00 | 21 | 1023.4 |
| 20260502190325 | 81 | 222 | 7.0 | 12.0 | 0.00 | 0.00 | 0.00 | 24 | 1023.6 |
| 20260502185332 | 81 | 182 | 11.0 | 21.0 | 0.00 | 0.00 | 0.00 | 22 | 1024.0 |
| 20260502184341 | 81 | 184 | 12.0 | 18.0 | 0.00 | 0.00 | 0.00 | 24 | 1023.9 |
| 20260502183332 | 81 | 106 | 8.0 | 18.0 | 0.00 | 0.00 | 0.00 | 23 | 1024.1 |
| 20260502182320 | 80 | 211 | 3.0 | 14.0 | 0.00 | 0.00 | 0.00 | 23 | 1024.1 |
| 20260502181324 | 80 | 144 | 6.0 | 11.0 | 0.00 | 0.00 | 0.00 | 23 | 1024.4 |
| 20260502180329 | 79 | 202 | 8.0 | 12.0 | 0.00 | 0.00 | 0.00 | 24 | 1024.5 |
| 20260502170343 | 78 | 176 | 6.0 | 12.0 | 0.00 | 0.00 | 0.00 | 26 | 1024.8 |
| 20260502164329 | 77 | 189 | 9.0 | 16.0 | 0.00 | 0.00 | 0.00 | 27 | 1024.6 |
| 20260502163322 | 76 | 194 | 9.0 | 16.0 | 0.00 | 0.00 | 0.00 | 27 | 1024.7 |
| 20260502162331 | 77 | 134 | 2.0 | 6.0 | 0.00 | 0.00 | 0.00 | 27 | 1024.7 |
| 20260502161339 | 76 | 341 | 2.0 | 5.0 | 0.00 | 0.00 | 0.00 | 29 | 1024.8 |
| 20260502160325 | 76 | 335 | 4.0 | 8.0 | 0.00 | 0.00 | 0.00 | 30 | 1024.7 |
| 20260502152333 | 73 | 67 | 4.0 | 16.0 | 0.00 | 0.00 | 0.00 | 32 | 1024.6 |
| 20260502151338 | 73 | 50 | 4.0 | 10.0 | 0.00 | 0.00 | 0.00 | 33 | 1024.6 |
| 20260502150343 | 72 | 5 | 4.0 | 10.0 | 0.00 | 0.00 | 0.00 | 34 | 1024.5 |
| 20260502130319 | 60 | 256 | 4.0 | 7.0 | 0.00 | 0.00 | 0.00 | 39 | 1022.7 |
| 20260502123327 | 59 | 215 | 8.0 | 10.0 | 0.00 | 0.00 | 0.00 | 44 | 1022.4 |
| 20260502122331 | 60 | 217 | 5.0 | 6.0 | 0.00 | 0.00 | 0.00 | 37 | 1022.3 |
| 20260502121318 | 61 | 309 | 2.0 | 3.0 | 0.00 | 0.00 | 0.00 | 35 | 1022.1 |
| 20260502120328 | 62 | 309 | 1.0 | 4.0 | 0.00 | 0.00 | 0.00 | 34 | 1022.0 |
| 20260502115333 | 62 | 259 | 1.0 | 6.0 | 0.00 | 0.00 | 0.00 | 31 | 1022.1 |
| 20260502114338 | 63 | 350 | 3.0 | 5.0 | 0.00 | 0.00 | 0.00 | 30 | 1022.2 |
| 20260502113328 | 64 | 35 | 2.0 | 4.0 | 0.00 | 0.00 | 0.00 | 29 | 1022.1 |
| 20260502112321 | 64 | 35 | 3.0 | 4.0 | 0.00 | 0.00 | 0.00 | 29 | 1022.3 |
| 20260502111329 | 66 | 44 | 4.0 | 6.0 | 0.00 | 0.00 | 0.00 | 28 | 1022.4 |
| 20260502110327 | 67 | 198 | 1.0 | 2.0 | 0.00 | 0.00 | 0.00 | 27 | 1022.2 |
| 20260502105336 | 69 | 198 | 3.0 | 6.0 | 0.00 | 0.00 | 0.00 | 25 | 1022.3 |
| 20260502104321 | 67 | 179 | 4.0 | 5.0 | 0.00 | 0.00 | 0.00 | 27 | 1022.3 |
| 20260502103329 | 66 | 106 | 3.0 | 4.0 | 0.00 | 0.00 | 0.00 | 28 | 1022.2 |
| 20260502102334 | 66 | 104 | 2.0 | 4.0 | 0.00 | 0.00 | 0.00 | 28 | 1022.0 |
| 20260502101322 | 66 | 104 | 4.0 | 6.0 | 0.00 | 0.00 | 0.00 | 28 | 1022.0 |
| 20260502100333 | 65 | 100 | 4.0 | 7.0 | 0.00 | 0.00 | 0.00 | 29 | 1022.0 |
| 20260502091320 | 69 | 162 | 4.0 | 6.0 | 0.00 | 0.00 | 0.00 | 26 | 1021.8 |
| 20260502090353 | 69 | 193 | 6.0 | 9.0 | 0.00 | 0.00 | 0.00 | 25 | 1021.8 |
| 20260502071321 | 68 | 192 | 6.0 | 9.0 | 0.00 | 0.00 | 0.00 | 26 | 1022.2 |
| 20260502070350 | 68 | 202 | 6.0 | 8.0 | 0.00 | 0.00 | 0.00 | 27 | 1022.2 |
| 20260502065336 | 68 | 183 | 2.0 | 7.0 | 0.00 | 0.00 | 0.00 | 26 | 1022.2 |
| 20260502064345 | 68 | 237 | 6.0 | 8.0 | 0.00 | 0.00 | 0.00 | 26 | 1022.0 |
| 20260502063317 | 69 | 360 | 2.0 | 3.0 | 0.00 | 0.00 | 0.00 | 26 | 1022.0 |
| 20260502062325 | 71 | 360 | 1.0 | 3.0 | 0.00 | 0.00 | 0.00 | 24 | 1021.8 |
| 20260502061336 | 73 | 328 | 2.0 | 3.0 | 0.00 | 0.00 | 0.00 | 23 | 1021.8 |
| 20260502060326 | 73 | 328 | 1.0 | 4.0 | 0.00 | 0.00 | 0.00 | 23 | 1021.7 |
| 20260502055335 | 73 | 328 | 3.0 | 4.0 | 0.00 | 0.00 | 0.00 | 23 | 1021.6 |
| 20260502054323 | 73 | 328 | 3.0 | 6.0 | 0.00 | 0.00 | 0.00 | 23 | 1021.5 |
| 20260502053317 | 71 | 306 | 4.0 | 5.0 | 0.00 | 0.00 | 0.00 | 24 | 1021.5 |
| 20260502052325 | 71 | 337 | 2.0 | 3.0 | 0.00 | 0.00 | 0.00 | 24 | 1021.5 |
| 20260502051317 | 71 | 88 | 0.0 | 2.0 | 0.00 | 0.00 | 0.00 | 24 | 1021.4 |
| 20260502050347 | 70 | 88 | 1.0 | 4.0 | 0.00 | 0.00 | 0.00 | 24 | 1021.4 |
| 20260502045334 | 72 | 88 | 3.0 | 5.0 | 0.00 | 0.01 | 0.00 | 23 | 1021.2 |
| 20260502044402 | 73 | 312 | 3.0 | 5.0 | 0.00 | 0.01 | 0.00 | 23 | 1021.2 |
| 20260502043352 | 73 | 288 | 3.0 | 5.0 | 0.00 | 0.01 | 0.00 | 22 | 1021.1 |
| 20260502042335 | 74 | 291 | 3.0 | 5.0 | 0.00 | 0.01 | 0.00 | 22 | 1021.1 |
| 20260502041319 | 74 | 289 | 3.0 | 5.0 | 0.00 | 0.01 | 0.00 | 22 | 1020.9 |
| 20260502040326 | 75 | 311 | 3.0 | 4.0 | 0.00 | 0.01 | 0.00 | 21 | 1020.8 |
| 20260502035331 | 75 | 333 | 3.0 | 4.0 | 0.00 | 0.01 | 0.00 | 20 | 1020.6 |
| 20260502034335 | 75 | 333 | 1.0 | 2.0 | 0.00 | 0.01 | 0.00 | 20 | 1020.5 |
| 20260502033345 | 75 | 333 | 1.0 | 1.0 | 0.00 | 0.01 | 0.00 | 20 | 1020.4 |
| 20260502032330 | 75 | 333 | 1.0 | 3.0 | 0.00 | 0.01 | 0.00 | 20 | 1020.4 |
| 20260502031318 | 75 | 333 | 2.0 | 4.0 | 0.00 | 0.01 | 0.00 | 20 | 1020.3 |
| 20260502030328 | 76 | 330 | 3.0 | 4.0 | 0.00 | 0.01 | 0.00 | 19 | 1020.2 |
| 20260502025336 | 76 | 330 | 2.0 | 4.0 | 0.00 | 0.01 | 0.00 | 19 | 1019.9 |
| 20260502024326 | 76 | 330 | 2.0 | 3.0 | 0.00 | 0.01 | 0.00 | 19 | 1019.8 |
| 20260502023340 | 76 | 330 | 2.0 | 3.0 | 0.00 | 0.01 | 0.00 | 19 | 1019.8 |
| 20260502022323 | 77 | 330 | 1.0 | 3.0 | 0.00 | 0.01 | 0.00 | 19 | 1019.7 |